Torna al catalogo

CZ-6A DEB

AttivoPO
NORAD 61090·DEBRIS·🇨🇳 China

Lanciato Aug 6, 2024 da Taiyuan Satellite Launch Center

Loading…

Prossimi Passaggi (prossime 24 ore)

TLE

AggiornatoSource: Space-Track

Epoca: Sep 14, 2026, 08:56 UTC

1 61090U 24140NG  26257.37290717  .00004420  00000-0  66799-3 0  9995
2 61090  88.7559 234.7192 0121726 295.9834  62.8885 14.69162229109376

Traccia CZ-6A DEB in tempo reale con AllMySat

Download on the App Store